Miscellaneous Local Product
Issued by NWS Hastings, NE

Home | Current Version | Previous Version | Text Only | Print | Product List | Glossary Off
Versions: 1 2 3 4 5 6 7 8 9 10 11 12 13 14 15 16 17 18 19 20 21 22 23 24 25 26 27 28 29 30 31 32 33 34 35 36 37 38 39 40 41 42 43 44 45 46 47 48 49 50

283
AXUS43 KGID 250802
MISGRI

GID CWA HOURLY WEATHER ROUNDUP
NATIONAL WEATHER SERVICE HASTINGS NE
300 AM CDT MON JUL 25 2016

NOTE: "FAIR" INDICATES FEW OR NO CLOUDS BELOW 12,000 FEET WITH NO
SIGNIFICANT WEATHER AND/OR OBSTRUCTIONS TO VISIBILITY.

...SOUTH CENTRAL NEBRASKA...

CITY           SKY/WX    TMP DP  RH WIND       PRES   REMARKS
GRAND ISLAND   MOCLDY    65  63  93 NE7       30.08F
HASTINGS       CLOUDY    67  63  87 NE7       30.09S
KEARNEY        MOCLDY    66  61  82 NE6       30.11R
ORD            CLEAR     62  58  86 NW5       30.09F
YORK           CLOUDY    64  64 100 CALM      30.08R
AURORA         CLOUDY    66  65  97 NE7       30.07F
LEXINGTON      CLOUDY    65  63  90 CALM      30.11S
HOLDREGE       CLOUDY    67  63  89 NE5       30.10R
HEBRON         PTCLDY    68  64  86 NE6       30.05S

...NEBRASKA PANHANDLE...

CITY           SKY/WX    TMP DP  RH WIND       PRES   REMARKS
CHADRON        CLEAR     69  57  65 S9        30.13S
ALLIANCE       CLEAR     57  55  93 S6        30.18F
SCOTTSBLUFF    CLEAR     60  55  83 E6        30.17F
SIDNEY         CLEAR     52  50  93 CALM      30.22F

...WESTERN AND NORTH CENTRAL NEBRASKA...

CITY           SKY/WX    TMP DP  RH WIND       PRES   REMARKS
VALENTINE      CLEAR     65  54  67 CALM      30.12F
AINSWORTH      CLEAR     62  55  79 CALM      30.13F
ONEILL         CLEAR     64  60  87 CALM      30.12F
BROKEN BOW     PTCLDY    61  60  97 CALM      30.12F
IMPERIAL       CLOUDY    66  59  78 E6        30.15S
NORTH PLATTE   MOCLDY    63  60  90 CALM      30.13S
MCCOOK         CLOUDY    67  60  78 E7        30.11F

...EASTERN NEBRASKA...

CITY           SKY/WX    TMP DP  RH WIND       PRES   REMARKS
NORFOLK        CLEAR     60  58  92 W3        30.08F
SO SIOUX CITY  CLEAR     63  60  90 W5        30.06F
TEKAMAH        CLEAR     62  60  93 N5        30.06S
COLUMBUS       MOCLDY    63  54  72 N5        30.08F
ALBION         CLOUDY    61  58  91 CALM      30.09F
OMAHA EPPLEY   MOCLDY    69  64  84 N9        30.04F
OFFUTT AFB     CLEAR     67  63  86 W1        30.04F
MILLARD        PTCLDY    72  64  76 CALM      30.05S
LINCOLN        PTCLDY    66  64  93 N6        30.06F
NEBRASKA CITY  CLEAR     67  67 100 N7        30.04S
BEATRICE       PTCLDY    67  64  93 NE7       30.04F
FALLS CITY     CLEAR     69  66  90 N5        30.02S

...NORTHERN KANSAS...

CITY           SKY/WX    TMP DP  RH WIND       PRES   REMARKS
GOODLAND       PTCLDY    64  59  83 S8        30.12F
HILL CITY      CLOUDY    72  63  73 S5        30.07F
NORTON         SUNNY     70  54  56 CALM      30.11R
SMITH CENTER   MOCLDY    72  61  68 NE9       30.06S
BELOIT         MOCLDY    70  64  83 NE7       30.03R
HAYS           CLOUDY    72  57  60 NW13      30.11R THUNDER
RUSSELL        CLOUDY    71  64  78 NE8       30.02R
CONCORDIA      MOCLDY    71  64  78 E7        30.03R
SALINA         CLOUDY    76  68  76 NE7       30.00R
TOPEKA         CLOUDY    75  68  78 CALM      30.00S



USA.gov is the U.S. government's official web portal to all federal, state and local government web resources and services.